TimeEST,TemperatureF,Dew PointF,Humidity,Sea Level PressureIn,VisibilityMPH,Wind Direction,Wind SpeedMPH,Gust SpeedMPH,PrecipitationIn,Events,Conditions,WindDirDegrees,DateUTC
12:00 AM,30.2,24.8,80,30.19,10.0,Calm,Calm,-,N/A,,Clear,0,2013-02-26 05:00:00
12:20 AM,32.0,24.8,75,30.19,10.0,Calm,Calm,-,N/A,,Clear,0,2013-02-26 05:20:00
12:40 AM,30.2,24.8,80,30.20,10.0,Calm,Calm,-,N/A,,Clear,0,2013-02-26 05:40:00
1:00 AM,30.2,24.8,80,30.20,10.0,Calm,Calm,-,N/A,,Clear,0,2013-02-26 06:00:00
1:20 AM,30.2,24.8,80,30.20,10.0,Calm,Calm,-,N/A,,Clear,0,2013-02-26 06:20:00
1:40 AM,30.2,24.8,80,30.20,10.0,Calm,Calm,-,N/A,,Scattered Clouds,0,2013-02-26 06:40:00
2:00 AM,30.2,24.8,80,30.20,10.0,Calm,Calm,-,N/A,,Clear,0,2013-02-26 07:00:00
2:20 AM,30.2,24.8,80,30.21,10.0,Calm,Calm,-,N/A,,Clear,0,2013-02-26 07:20:00
2:40 AM,30.2,24.8,80,30.20,10.0,Calm,Calm,-,N/A,,Clear,0,2013-02-26 07:40:00
3:00 AM,28.4,24.8,86,30.19,10.0,Calm,Calm,-,N/A,,Clear,0,2013-02-26 08:00:00
3:20 AM,30.2,24.8,80,30.18,10.0,Calm,Calm,-,N/A,,Scattered Clouds,0,2013-02-26 08:20:00
3:40 AM,30.2,26.6,86,30.17,10.0,Calm,Calm,-,N/A,,Scattered Clouds,0,2013-02-26 08:40:00
4:00 AM,30.2,26.6,86,30.17,10.0,Calm,Calm,-,N/A,,Scattered Clouds,0,2013-02-26 09:00:00
4:20 AM,30.2,24.8,80,30.17,10.0,Calm,Calm,-,N/A,,Clear,0,2013-02-26 09:20:00
5:00 AM,30.2,24.8,80,30.15,10.0,Calm,Calm,-,N/A,,Clear,0,2013-02-26 10:00:00
5:20 AM,30.2,24.8,80,30.16,10.0,Calm,Calm,-,N/A,,Clear,0,2013-02-26 10:20:00
5:40 AM,30.2,24.8,80,30.16,10.0,Calm,Calm,-,N/A,,Clear,0,2013-02-26 10:40:00
6:00 AM,30.2,24.8,80,30.17,10.0,Calm,Calm,-,N/A,,Clear,0,2013-02-26 11:00:00
6:20 AM,30.2,24.8,80,30.18,10.0,Calm,Calm,-,N/A,,Clear,0,2013-02-26 11:20:00
7:00 AM,30.2,24.8,80,30.18,10.0,Calm,Calm,-,N/A,,Clear,0,2013-02-26 12:00:00
7:20 AM,30.2,26.6,86,30.17,10.0,Calm,Calm,-,N/A,,Clear,0,2013-02-26 12:20:00
7:40 AM,32.0,26.6,80,30.16,10.0,East,4.6,-,N/A,,Clear,100,2013-02-26 12:40:00
8:00 AM,33.8,26.6,75,30.17,10.0,Calm,Calm,-,N/A,,Clear,0,2013-02-26 13:00:00
8:20 AM,33.8,26.6,75,30.18,10.0,East,4.6,-,N/A,,Clear,100,2013-02-26 13:20:00
8:40 AM,35.6,26.6,70,30.18,10.0,ESE,5.8,-,N/A,,Clear,110,2013-02-26 13:40:00
9:00 AM,35.6,26.6,70,30.18,10.0,Calm,Calm,-,N/A,,Clear,0,2013-02-26 14:00:00
9:20 AM,35.6,26.6,70,30.18,10.0,Calm,Calm,-,N/A,,Clear,0,2013-02-26 14:20:00
10:00 AM,37.4,26.6,65,30.16,10.0,East,8.1,-,N/A,,Clear,100,2013-02-26 15:00:00
10:20 AM,37.4,26.6,65,30.17,10.0,SE,6.9,-,N/A,,Clear,130,2013-02-26 15:20:00
10:40 AM,37.4,26.6,65,30.16,10.0,ESE,10.4,-,N/A,,Clear,110,2013-02-26 15:40:00
11:00 AM,37.4,26.6,65,30.14,10.0,SE,12.7,20.7,N/A,,Clear,130,2013-02-26 16:00:00
11:20 AM,37.4,26.6,65,30.15,10.0,SE,9.2,-,N/A,,Scattered Clouds,130,2013-02-26 16:20:00
11:40 AM,39.2,26.6,61,30.14,10.0,SE,8.1,-,N/A,,Mostly Cloudy,130,2013-02-26 16:40:00
12:00 PM,39.2,28.4,65,30.14,10.0,ESE,10.4,-,N/A,,Overcast,110,2013-02-26 17:00:00
12:20 PM,39.2,28.4,65,30.11,10.0,East,8.1,16.1,N/A,,Overcast,100,2013-02-26 17:20:00
12:40 PM,39.2,30.2,70,30.11,10.0,East,8.1,-,N/A,Rain,Rain,100,2013-02-26 17:40:00
1:00 PM,37.4,33.8,87,30.10,5.0,ESE,6.9,-,N/A,Rain,Rain,110,2013-02-26 18:00:00
1:20 PM,37.4,33.8,87,30.09,5.0,East,6.9,-,0.01,Rain,Light Rain,90,2013-02-26 18:20:00
2:00 PM,37.4,33.8,87,30.05,7.0,East,8.1,-,N/A,Rain,Light Rain,90,2013-02-26 19:00:00
2:20 PM,37.4,35.6,93,30.03,7.0,East,9.2,-,N/A,Rain,Light Rain,90,2013-02-26 19:20:00
2:40 PM,37.4,35.6,93,30.02,7.0,East,6.9,-,0.01,Rain,Light Rain,90,2013-02-26 19:40:00
3:00 PM,37.4,35.6,93,30.00,5.0,East,6.9,-,N/A,Rain,Light Rain,90,2013-02-26 20:00:00
3:25 PM,37.4,35.6,93,29.97,7.0,East,12.7,18.4,0.01,Rain,Light Rain,80,2013-02-26 20:25:00
3:45 PM,37.4,35.6,93,29.95,7.0,East,11.5,16.1,0.01,Rain,Light Rain,90,2013-02-26 20:45:00
4:05 PM,39.2,35.6,87,29.94,7.0,East,10.4,17.3,N/A,Rain,Rain,90,2013-02-26 21:05:00
4:25 PM,39.2,37.4,93,29.92,10.0,East,11.5,21.9,0.01,Rain,Light Rain,100,2013-02-26 21:25:00
5:05 PM,39.2,37.4,93,29.88,10.0,East,13.8,26.5,N/A,Rain,Rain,100,2013-02-26 22:05:00
5:25 PM,39.2,35.6,87,29.85,10.0,East,18.4,27.6,N/A,Rain,Light Rain,100,2013-02-26 22:25:00
6:05 PM,39.2,35.6,87,29.82,10.0,East,21.9,31.1,N/A,Rain,Rain,100,2013-02-26 23:05:00
6:25 PM,39.2,35.6,87,29.82,7.0,East,13.8,31.1,N/A,Rain,Light Rain,100,2013-02-26 23:25:00
7:05 PM,39.2,37.4,93,29.76,5.0,East,24.2,40.3,N/A,Rain,Rain,90,2013-02-27 00:05:00
7:25 PM,39.2,37.4,93,29.76,3.0,East,19.6,31.1,0.02,Rain,Light Rain,100,2013-02-27 00:25:00
8:05 PM,39.2,37.4,93,29.75,7.0,East,18.4,32.2,0.01,Rain,Light Rain,100,2013-02-27 01:05:00
8:25 PM,39.2,37.4,93,29.73,4.0,East,13.8,27.6,0.01,Rain,Rain,100,2013-02-27 01:25:00
8:45 PM,39.2,37.4,93,29.71,7.0,East,17.3,33.4,0.01,Rain,Rain,100,2013-02-27 01:45:00
9:05 PM,39.2,37.4,93,29.71,2.0,East,18.4,29.9,0.02,Rain,Rain,100,2013-02-27 02:05:00
9:25 PM,39.2,37.4,93,29.73,3.0,ESE,11.5,26.5,0.03,Rain,Rain,110,2013-02-27 02:25:00
10:05 PM,39.2,37.4,93,29.74,7.0,East,11.5,18.4,0.02,Rain,Rain,90,2013-02-27 03:05:00
10:25 PM,39.2,37.4,93,29.73,4.0,East,6.9,-,0.03,Rain,Rain,80,2013-02-27 03:25:00
10:45 PM,39.2,37.4,93,29.69,7.0,East,11.5,18.4,0.03,Rain,Rain,80,2013-02-27 03:45:00
11:05 PM,39.2,37.4,93,29.68,7.0,East,8.1,18.4,N/A,,Drizzle,80,2013-02-27 04:05:00
11:25 PM,39.2,37.4,93,29.67,7.0,ENE,9.2,16.1,0.01,,Drizzle,70,2013-02-27 04:25:00
11:45 PM,39.2,37.4,93,29.66,5.0,ENE,8.1,16.1,0.01,,Drizzle,60,2013-02-27 04:45:00